This is the latest recevied weather packets stored in our database for station/object OK3MS-5. If no packets are shown the sender has not sent any weather packets the latest 10 day(s).
| Time | Temp. | Humidity | Pressure | Rain* | Wind** | Luminosity | Snow |
|---|---|---|---|---|---|---|---|
| 1777434604 | 0.56° C | 69% | 1024.7 hPa | 0 mm | - | 4 W/m² | - |
| 1777434303 | 1.11° C | 66% | 1024.5 hPa | 0 mm | - | 3 W/m² | - |
| 1777434007 | 1.11° C | 63% | 1024.5 hPa | 0 mm | - | 2 W/m² | - |
| 1777433705 | 1.11° C | 62% | 1024.4 hPa | 0 mm | - | 1 W/m² | - |
| 1777433404 | 1.11° C | 66% | 1024.5 hPa | 0 mm | - | 1 W/m² | - |
| 1777433104 | 1.11° C | 66% | 1024.5 hPa | 0 mm | - | 0 W/m² | - |
| 1777432810 | 1.11° C | 63% | 1024.5 hPa | 0 mm | - | 0 W/m² | - |
| 1777432503 | 1.11° C | 66% | 1024.5 hPa | 0 mm | - | 0 W/m² | - |
| 1777432203 | 1.11° C | 68% | 1024.5 hPa | 0 mm | - | 0 W/m² | - |
| 1777431904 | 1.11° C | 63% | 1024.5 hPa | 0 mm | - | 0 W/m² | - |
| 1777431605 | 1.11° C | 65% | 1024.4 hPa | 0 mm | - | 0 W/m² | - |
| 1777431303 | 1.11° C | 68% | 1024.5 hPa | 0 mm | - | 0 W/m² | - |
| 1777431002 | 1.67° C | 68% | 1024.3 hPa | 0 mm | - | 0 W/m² | - |
| 1777430703 | 1.67° C | 66% | 1024.3 hPa | 0 mm | - | 0 W/m² | - |
| 1777430405 | 1.67° C | 66% | 1024.3 hPa | 0 mm | - | 0 W/m² | - |
| 1777430104 | 1.67° C | 66% | 1024.1 hPa | 0 mm | - | 0 W/m² | - |
| 1777429803 | 2.22° C | 65% | 1023.9 hPa | 0 mm | - | 0 W/m² | - |
| 1777429504 | 2.78° C | 61% | 1023.9 hPa | 0 mm | - | 0 W/m² | - |
| 1777429203 | 2.78° C | 57% | 1023.8 hPa | 0 mm | - | 0 W/m² | - |
| 1777428906 | 3.33° C | 57% | 1023.7 hPa | 0 mm | - | 0 W/m² | - |
| 1777428604 | 3.33° C | 55% | 1023.8 hPa | 0 mm | - | 0 W/m² | - |
| 1777428303 | 3.33° C | 55% | 1023.7 hPa | 0 mm | - | 0 W/m² | - |
| 1777428002 | 3.33° C | 57% | 1023.7 hPa | 0 mm | - | 0 W/m² | - |
| 1777427705 | 3.33° C | 55% | 1023.5 hPa | 0 mm | - | 0 W/m² | - |
| 1777427403 | 3.33° C | 55% | 1023.6 hPa | 0 mm | - | 0 W/m² | - |
* Rain latest hour (hover to see other rain measurements)
** Current wind speed in m/s (hover to see current wind gust speed)